TimeCST,TemperatureF,Dew PointF,Humidity,Sea Level PressureIn,VisibilityMPH,Wind Direction,Wind SpeedMPH,Gust SpeedMPH,PrecipitationIn,Events,Conditions,WindDirDegrees,DateUTC
12:15 AM,43.5,31.6,63,30.07,10.0,East,3.5,-,N/A,,Clear,90,2013-02-06 06:15:00
12:35 AM,42.4,31.1,64,30.08,10.0,ENE,3.5,-,N/A,,Clear,70,2013-02-06 06:35:00
12:55 AM,41.5,30.6,65,30.07,10.0,East,4.6,-,N/A,,Clear,80,2013-02-06 06:55:00
1:15 AM,41.5,30.7,65,30.07,10.0,East,4.6,-,N/A,,Clear,100,2013-02-06 07:15:00
1:35 AM,41.5,30.9,66,30.07,10.0,East,3.5,-,N/A,,Clear,90,2013-02-06 07:35:00
2:15 AM,40.6,30.7,68,30.08,10.0,ENE,3.5,-,N/A,,Clear,60,2013-02-06 08:15:00
2:35 AM,40.1,30.9,70,30.08,10.0,East,3.5,-,N/A,,Clear,80,2013-02-06 08:35:00
2:55 AM,40.5,31.3,70,30.08,10.0,Calm,Calm,-,N/A,,Clear,0,2013-02-06 08:55:00
3:15 AM,38.7,30.6,73,30.08,10.0,East,3.5,-,N/A,,Clear,90,2013-02-06 09:15:00
3:35 AM,38.7,30.9,74,30.08,10.0,East,3.5,-,N/A,,Clear,100,2013-02-06 09:35:00
3:55 AM,38.5,30.2,72,30.07,10.0,East,4.6,-,N/A,,Clear,90,2013-02-06 09:55:00
4:15 AM,38.1,30.2,73,30.07,10.0,East,5.8,-,N/A,,Clear,90,2013-02-06 10:15:00
4:35 AM,39.6,31.1,72,30.07,10.0,ESE,3.5,-,N/A,,Clear,120,2013-02-06 10:35:00
4:55 AM,40.5,31.3,70,30.08,10.0,ESE,5.8,-,N/A,,Clear,110,2013-02-06 10:55:00
5:15 AM,40.1,31.3,71,30.07,10.0,ESE,6.9,-,N/A,,Clear,110,2013-02-06 11:15:00
5:35 AM,39.6,31.1,72,30.07,10.0,ESE,6.9,-,N/A,,Clear,120,2013-02-06 11:35:00
5:55 AM,39.0,30.7,72,30.07,10.0,SE,6.9,-,N/A,,Clear,130,2013-02-06 11:55:00
6:15 AM,37.9,30.2,74,30.08,10.0,ESE,5.8,-,N/A,,Clear,120,2013-02-06 12:15:00
6:35 AM,37.9,30.4,74,30.08,10.0,SE,5.8,-,N/A,,Clear,140,2013-02-06 12:35:00
6:55 AM,37.9,30.7,75,30.08,10.0,ESE,6.9,-,N/A,,Clear,120,2013-02-06 12:55:00
7:15 AM,37.9,30.7,75,30.09,10.0,ESE,5.8,-,N/A,,Clear,120,2013-02-06 13:15:00
7:35 AM,37.9,31.1,76,30.09,10.0,SE,5.8,-,N/A,,Clear,130,2013-02-06 13:35:00
7:55 AM,37.9,30.9,76,30.09,10.0,ESE,5.8,-,N/A,,Clear,120,2013-02-06 13:55:00
8:15 AM,39.6,31.5,73,30.09,10.0,SE,8.1,-,N/A,,Clear,130,2013-02-06 14:15:00
8:35 AM,41.0,31.8,70,30.08,10.0,SE,8.1,-,N/A,,Clear,130,2013-02-06 14:35:00
8:55 AM,42.8,32.0,66,30.08,10.0,SE,9.2,-,N/A,,Clear,140,2013-02-06 14:55:00
9:15 AM,45.3,32.2,60,30.08,10.0,SE,12.7,17.3,N/A,,Clear,140,2013-02-06 15:15:00
9:35 AM,48.9,33.3,55,30.07,10.0,SE,11.5,-,N/A,,Clear,140,2013-02-06 15:35:00
9:55 AM,50.9,33.1,51,30.07,10.0,SSE,13.8,-,N/A,,Clear,150,2013-02-06 15:55:00
10:15 AM,51.4,32.4,48,30.07,10.0,SSE,12.7,-,N/A,,Clear,150,2013-02-06 16:15:00
10:35 AM,54.3,33.6,46,30.07,10.0,SSE,11.5,-,N/A,,Clear,150,2013-02-06 16:35:00
10:55 AM,56.1,33.8,43,30.06,10.0,SSE,15.0,18.4,N/A,,Clear,150,2013-02-06 16:55:00
11:15 AM,58.1,34.2,41,30.05,10.0,SSE,13.8,20.7,N/A,,Clear,150,2013-02-06 17:15:00
11:35 AM,58.3,33.6,39,30.04,10.0,SSE,11.5,-,N/A,,Clear,160,2013-02-06 17:35:00
11:55 AM,59.7,34.5,39,30.03,10.0,South,13.8,-,N/A,,Clear,170,2013-02-06 17:55:00
12:15 PM,61.2,35.1,38,30.02,10.0,SSE,12.7,-,N/A,,Clear,150,2013-02-06 18:15:00
12:35 PM,62.1,35.8,38,30.01,10.0,South,12.7,-,N/A,,Scattered Clouds,170,2013-02-06 18:35:00
12:55 PM,63.0,36.9,38,29.99,10.0,South,13.8,-,N/A,,Clear,180,2013-02-06 18:55:00
1:15 PM,64.2,38.7,39,29.98,10.0,South,16.1,-,N/A,,Scattered Clouds,190,2013-02-06 19:15:00
1:35 PM,64.4,38.1,38,29.97,10.0,South,12.7,-,N/A,,Clear,190,2013-02-06 19:35:00
1:55 PM,63.5,37.8,39,29.96,10.0,South,10.4,-,N/A,,Scattered Clouds,190,2013-02-06 19:55:00
2:15 PM,64.0,37.9,38,29.95,10.0,South,10.4,-,N/A,,Mostly Cloudy,190,2013-02-06 20:15:00
2:35 PM,65.1,39.6,39,29.94,10.0,South,10.4,-,N/A,,Scattered Clouds,170,2013-02-06 20:35:00
2:55 PM,65.8,40.1,39,29.93,10.0,South,15.0,-,N/A,,Scattered Clouds,170,2013-02-06 20:55:00
3:35 PM,64.0,40.3,42,29.92,10.0,South,11.5,19.6,N/A,,Mostly Cloudy,180,2013-02-06 21:35:00
3:55 PM,63.7,39.0,40,29.92,10.0,South,10.4,16.1,N/A,,Mostly Cloudy,170,2013-02-06 21:55:00
4:15 PM,63.5,39.2,41,29.92,10.0,South,10.4,-,N/A,,Mostly Cloudy,170,2013-02-06 22:15:00
4:35 PM,63.5,40.1,42,29.92,10.0,South,9.2,-,N/A,,Scattered Clouds,180,2013-02-06 22:35:00
4:55 PM,63.5,41.2,44,29.92,10.0,South,11.5,18.4,N/A,,Scattered Clouds,180,2013-02-06 22:55:00
5:15 PM,63.3,40.6,43,29.91,10.0,South,8.1,-,N/A,,Mostly Cloudy,180,2013-02-06 23:15:00
5:35 PM,62.1,39.6,44,29.91,10.0,South,8.1,-,N/A,,Overcast,170,2013-02-06 23:35:00
5:55 PM,61.0,39.2,45,29.92,10.0,SSE,9.2,-,N/A,,Mostly Cloudy,150,2013-02-06 23:55:00
6:15 PM,58.6,37.9,46,29.92,10.0,SE,8.1,-,N/A,,Mostly Cloudy,140,2013-02-07 00:15:00
6:35 PM,58.3,37.8,46,29.92,10.0,SSE,9.2,-,N/A,,Overcast,150,2013-02-07 00:35:00
6:55 PM,58.1,38.8,49,29.92,10.0,SSE,10.4,-,N/A,,Overcast,160,2013-02-07 00:55:00
7:15 PM,56.7,38.5,51,29.92,10.0,SSE,6.9,-,N/A,,Scattered Clouds,150,2013-02-07 01:15:00
7:35 PM,55.8,39.9,55,29.92,10.0,SSE,8.1,-,N/A,,Scattered Clouds,160,2013-02-07 01:35:00
7:55 PM,55.8,40.8,57,29.91,10.0,SSE,8.1,-,N/A,,Scattered Clouds,160,2013-02-07 01:55:00
8:15 PM,54.7,40.3,58,29.91,10.0,South,6.9,-,N/A,,Scattered Clouds,170,2013-02-07 02:15:00
8:35 PM,52.2,39.2,61,29.92,10.0,SSE,4.6,-,N/A,,Clear,160,2013-02-07 02:35:00
8:55 PM,51.6,38.3,60,29.92,10.0,South,4.6,-,N/A,,Clear,170,2013-02-07 02:55:00
9:15 PM,52.0,38.7,60,29.92,10.0,SSE,4.6,-,N/A,,Scattered Clouds,150,2013-02-07 03:15:00
9:35 PM,51.4,38.7,62,29.92,10.0,SSE,4.6,-,N/A,,Clear,150,2013-02-07 03:35:00
9:55 PM,50.9,39.4,65,29.92,10.0,SSE,6.9,-,N/A,,Clear,160,2013-02-07 03:55:00
10:15 PM,50.9,39.4,65,29.92,10.0,SSE,5.8,-,N/A,,Clear,160,2013-02-07 04:15:00
10:35 PM,50.9,38.8,63,29.92,10.0,South,4.6,-,N/A,,Clear,170,2013-02-07 04:35:00
10:55 PM,50.9,37.9,61,29.92,10.0,SSE,6.9,-,N/A,,Clear,160,2013-02-07 04:55:00
11:15 PM,50.9,37.6,60,29.93,10.0,South,6.9,-,N/A,,Clear,170,2013-02-07 05:15:00
11:35 PM,50.9,37.4,60,29.92,10.0,South,9.2,-,N/A,,Mostly Cloudy,170,2013-02-07 05:35:00
11:55 PM,52.0,37.4,58,29.92,10.0,South,9.2,-,N/A,,Overcast,170,2013-02-07 05:55:00